Regional Weather Roundup
Issued by NWS

Home | Current Version | Previous Version | Text Only | Print | Product List | Glossary On
Versions: 1 2 3 4 5 6 7 8 9 10 11 12 13 14 15 16 17 18 19 20 21 22 23 24 25 26 27 28 29 30 31 32 33 34 35 36 37 38 39 40 41 42 43 44 45 46 47 48 49 50
000
ASUS44 KMEG 262110
RWRTN
TENNESSEE HOURLY STATE WEATHER ROUNDUP
NATIONAL WEATHER SERVICE MEMPHIS TN
300 PM CST MON JAN 26 2015

TNZ002-004-019-021-049-052-054-088>092-262200-
WEST TENNESSEE

CITY           SKY/WX    TMP DP  RH WIND       PRES   REMARKS
MEMPHIS INTL   MOSUNNY   48  32  53 SW10      30.01F
NWS MEMPHIS      N/A     46 N/A N/A MISG        N/A
JACKSON        MOSUNNY   42  29  59 W10       29.97F
DYERSBURG      PTSUNNY   43  23  45 W12       29.99F
UNION CITY     PTSUNNY   37  30  75 SW8       29.95F WCI  31
PARIS          MOSUNNY   36  27  69 W7        29.95F WCI  30
LEXINGTON      MOSUNNY   43  27  52 W10       29.96F
SAVANNAH       PTSUNNY   43  28  56 W9        29.99S
$$

TNZ008-025-027-028-033-062-065-066-262200-
NORTH MIDDLE TENNESSEE

CITY           SKY/WX    TMP DP  RH WIND       PRES   REMARKS
NASHVILLE      CLOUDY    35  29  78 W8        29.96S WCI  29
CLARKSVILLE    CLOUDY    37  26  64 W8        29.96R WCI  31
SMYRNA         CLOUDY    35  29  79 NW7       29.97F WCI  29
COOKEVILLE     CLOUDY    30  28  93 NW5       29.91F WCI  25
CROSSVILLE     CLOUDY    29  26  89 NW8       29.87S WCI  21
$$

TNZ061-075-076-078-094-096-097-262200-
SOUTH MIDDLE TENNESSEE

CITY           SKY/WX    TMP DP  RH WIND       PRES   REMARKS
FAYETTEVILLE   CLOUDY    36  27  69 MISG      29.94F
TULLAHOMA      CLOUDY    34  27  75 W9        29.94F WCI  26
WINCHESTER     CLOUDY    34  28  80 W8        29.94F WCI  27
MCMINNVILLE    CLOUDY    30  30 100 W5        29.92F WCI  25
COLUMBIA       MOSUNNY   41  32  70 W8        29.93F
SHELBYVILLE    CLOUDY    37  30  75 W10       29.96S WCI  30
$$

TNZ017-018-042-046-047-262200-
NORTHEAST TENNESSEE

CITY           SKY/WX    TMP DP  RH WIND       PRES   REMARKS
TRI CITIES     FLURRIES  33  27  78 W9        29.78R WCI  25
ELIZABETHTON   LGT SNOW  30  27  86 W10       29.76R FOG     WCI  21
$$

TNZ012-013-036-069-073-074-262200-
CENTRAL EAST TENNESSEE

CITY           SKY/WX    TMP DP  RH WIND       PRES   REMARKS
KNOXVILLE      CLOUDY    33  28  81 W9        29.89R WCI  25
OAK RIDGE      CLOUDY    35  26  69 N3        29.91R
GATLINBURG     CLOUDY    32  27  80 W6        29.87R WCI  26
MORRISTOWN     PTCLDY    30  27  86 NW9       29.85R WCI  22
$$

TNZ083-085-099-262200-
SOUTHEAST TENNESSEE

CITY           SKY/WX    TMP DP  RH WIND       PRES   REMARKS
CHATTANOOGA    PTSUNNY   38  27  64 NW15G24   29.94R WCI  29
$$

SKY/WX REPORTED AS FAIR MEANS FEW OR NO CLOUDS BELOW
12 THOUSAND FEET.




USA.gov is the U.S. government's official web portal to all federal, state and local government web resources and services.